Regional Weather Roundup
Issued by NWS

Home | Current Version | Previous Version | Text Only | Print | Product List | Glossary On
Versions: 1 2 3 4 5 6 7 8 9 10 11 12 13 14 15 16 17 18 19 20 21 22 23 24 25 26 27 28 29 30 31 32 33 34 35 36 37 38 39 40 41 42 43 44 45 46 47 48 49 50
000
ASUS46 KPQR 200210
RWROR

OREGON REGIONAL WEATHER ROUNDUP
NATIONAL WEATHER SERVICE PORTLAND OR
600 PM PST MON FEB 19 2018

NOTE: "FAIR" INDICATES FEW OR NO CLOUDS BELOW 12,000 FEET WITH
NO SIGNIFICANT WEATHER AND/OR OBSTRUCTIONS TO VISIBILITY.

ORZ001>013-200300-
NORTHWEST OREGON


CITY           SKY/WX    TMP DP  RH WIND       PRES   REMARKS
ASTORIA        PTCLDY    36  22  56 CALM      30.21F
TILLAMOOK      PTCLDY    36  25  64 SW3       30.24S
NEWPORT        PTCLDY    36  27  69 N14       30.26R WCI  27
PORTLAND       PTCLDY    37  22  54 N3        30.23S
VANCOUVER WA   CLEAR     37  21  52 CALM      30.22S
SCAPPOOSE      PTCLDY    32  24  72 W3        30.22S
HILLSBORO      PTCLDY    35  23  61 CALM      30.21S
AURORA         MOCLDY    37  22  54 CALM      30.23S
MCMINNVILLE    CLOUDY    35  26  69 E5        30.22R
SALEM          PTCLDY    35  22  58 SE3       30.21S
CORVALLIS      CLOUDY    37  26  64 NE3       30.23R
EUGENE         MOCLDY    34  28  79 NE6       30.22R
$$

ORZ021-028-200300-
SOUTHWEST OREGON


CITY           SKY/WX    TMP DP  RH WIND       PRES   REMARKS
NORTH BEND     CLOUDY    40  28  62 N12       30.26R
BROOKINGS      CLEAR     39  27  62 N6        30.21R
ROSEBURG       MOCLDY    37  29  72 N3        30.22R
SEXTON SUMMIT  CLOUDY    23  22  96 CALM      30.04R FOG
GRANTS PASS    FAIR      36  25  64 NW6       30.20R
MEDFORD        PTCLDY    36  20  52 NW6       30.15R
$$

ORZ014>016-041-200300-
COLUMBIA GORGE


CITY           SKY/WX    TMP DP  RH WIND       PRES   REMARKS
TROUTDALE      PTCLDY    37  23  56 CALM      30.23R
HOOD RIVER     PTCLDY    30  21  69 CALM      30.19S
THE DALLES     MOCLDY    30  16  56 E5        30.22R
$$

ORZ029>031-041-044-049-050-061>064-502-503-505>511-200300-
EASTERN OREGON


CITY           SKY/WX    TMP DP  RH WIND       PRES   REMARKS
MADRAS         NOT AVBL
REDMOND        CLEAR     20  10  65 NW5       30.05S
BEND           CLEAR     19  10  68 CALM      30.05R
PRINEVILLE     CLEAR     19   9  63 CALM      30.05R
KLAMATH FALLS  PTCLDY    22  15  75 W9        29.96R
LAKEVIEW       PTCLDY    19   9  65 N13       29.91R WCI   6
HERMISTON      CLEAR     24  11  57 SW7       30.20R
PENDLETON      PTCLDY    19   8  62 S7        30.14S
JOHN DAY       PTCLDY    16   2  54 NW6       29.99S
MEACHAM        CLOUDY     8   3  80 CALM      29.98S
LA GRANDE      CLOUDY    16   5  62 NW10      30.07R WCI   4
BAKER CITY     PTCLDY    14   0  53 NW20G29   29.98R WCI  -3
BURNS          PTCLDY    14   1  56 W16       29.92R WCI  -2
ROME             N/A     21   3  45 NW14      29.87R WCI   8
ONTARIO        PTCLDY    21   3  45 NW30G39   29.98R WCI   3
$$



USA.gov is the U.S. government's official web portal to all federal, state and local government web resources and services.